H1 CPF 2 NER 2023 10 29 9 302 01 glonass145 H2 2213001 9145 54031 2023 10 29 0 0 0 2023 11 1 23 45 0 900 1 1 0 0 0 1 H9 10 0 60246 0.00000 0 4342033.331 -17723510.593 -17827234.375 10 0 60246 900.00000 0 5570292.636 -19386851.908 -15621305.046 10 0 60246 1800.00000 0 6505541.817 -20898943.597 -13112114.784 10 0 60246 2700.00000 0 7157520.457 -22199105.098 -10348425.927 10 0 60246 3600.00000 0 7547888.737 -23231932.868 -7383917.629 10 0 60246 4500.00000 0 7709049.671 -23949624.115 -4276143.180 10 0 60246 5400.00000 0 7682523.758 -24314000.767 -1085413.488 10 0 60246 6300.00000 0 7516945.733 -24298149.086 2126371.628 10 0 60246 7200.00000 0 7265768.795 -23887606.376 5296921.643 10 0 60246 8100.00000 0 6984773.821 -23081045.184 8364759.827 10 0 60246 9000.00000 0 6729489.080 -21890426.389 11270410.862 10 0 60246 9900.00000 0 6552629.497 -20340614.649 13957548.685 10 0 60246 10800.00000 0 6501663.588 -18468472.120 16374082.716 10 0 60246 11700.00000 0 6616610.625 -16321467.844 18473161.884 10 0 60246 12600.00000 0 6928160.878 -13955860.324 20214077.533 10 0 60246 13500.00000 0 7456198.233 -11434528.246 21563048.354 10 0 60246 14400.00000 0 8208787.668 -8824538.735 22493872.753 10 0 60246 15300.00000 0 9181670.763 -6194553.250 22988436.495 10 0 60246 16200.00000 0 10358291.350 -3612177.808 23037066.102 10 0 60246 17100.00000 0 11710351.446 -1141366.457 22638721.256 10 0 60246 18000.00000 0 13198875.574 1160015.200 21801022.217 10 0 60246 18900.00000 0 14775740.473 3242366.164 20540111.230 10 0 60246 19800.00000 0 16385607.652 5066176.210 18880349.800 10 0 60246 20700.00000 0 17968179.234 6603426.658 16853856.730 10 0 60246 21600.00000 0 19460683.688 7838507.837 14499894.800 10 0 60246 22500.00000 0 20800487.963 8768615.270 11864116.924 10 0 60246 23400.00000 0 21927726.674 9403608.291 8997685.530 10 0 60246 24300.00000 0 22787837.732 9765337.325 5956281.623 10 0 60246 25200.00000 0 23333897.231 9886468.512 2799022.446 10 0 60246 26100.00000 0 23528654.354 9808855.704 -412691.116 10 0 60246 27000.00000 0 23346179.474 9581529.256 -3616374.543 10 0 60246 27900.00000 0 22773054.742 9258387.488 -6749683.044 10 0 60246 28800.00000 0 21809055.793 8895689.566 -9751633.462 10 0 60246 29700.00000 0 20467294.787 8549457.124 -12563799.901 10 0 60246 30600.00000 0 18773817.926 8272895.859 -15131458.781 10 0 60246 31500.00000 0 16766673.854 8113947.482 -17404660.122 10 0 60246 32400.00000 0 14494491.758 8113076.671 -19339203.580 10 0 60246 33300.00000 0 12014628.764 8301387.501 -20897499.900 10 0 60246 34200.00000 0 9390964.277 8699149.591 -22049300.963 10 0 60246 35100.00000 0 6691433.626 9314796.598 -22772284.510 10 0 60246 36000.00000 0 3985403.990 10144439.510 -23052482.644 10 0 60246 36900.00000 0 1341001.937 11171915.283 -22884546.407 10 0 60246 37800.00000 0 -1177496.489 12369368.741 -22271842.004 10 0 60246 38700.00000 0 -3512105.164 13698343.185 -21226377.456 10 0 60246 39600.00000 0 -5613296.191 15111333.801 -19768561.736 10 0 60246 40500.00000 0 -7441808.155 16553738.591 -17926801.494 10 0 60246 41400.00000 0 -8970020.564 17966124.953 -15736943.570 10 0 60246 42300.00000 0 -10182838.914 19286716.822 -13241574.282 10 0 60246 43200.00000 0 -11078055.261 20453998.117 -10489189.251 10 0 60246 44100.00000 0 -11666171.185 21409323.342 -7533249.838 10 0 60246 45000.00000 0 -11969692.318 22099425.899 -4431144.605 10 0 60246 45900.00000 0 -12021925.770 22478718.946 -1243075.893 10 0 60246 46800.00000 0 -11865332.407 22511292.304 1969106.854 10 0 60246 47700.00000 0 -11549504.513 22172521.648 5143104.385 10 0 60246 48600.00000 0 -11128854.862 21450222.419 8217372.378 10 0 60246 49500.00000 0 -10660115.193 20345299.968 11132310.403 10 0 60246 50400.00000 0 -10199749.829 18871868.434 13831412.236 10 0 60246 51300.00000 0 -9801393.563 17056832.988 16262355.580 10 0 60246 52200.00000 0 -9513421.689 14938952.343 18378010.571 10 0 60246 53100.00000 0 -9376754.403 12567419.930 20137348.050 10 0 60246 54000.00000 0 -9422987.863 10000021.967 21506230.652 10 0 60246 54900.00000 0 -9672930.527 7300948.007 22458071.981 10 0 60246 55800.00000 0 -10135606.496 4538343.854 22974351.597 10 0 60246 56700.00000 0 -10807768.191 1781707.199 23044976.156 10 0 60246 57600.00000 0 -11673939.584 -900767.138 22668479.805 10 0 60246 58500.00000 0 -12706989.175 -3444783.381 21852059.710 10 0 60246 59400.00000 0 -13869209.921 -5792375.661 20611445.552 10 0 60246 60300.00000 0 -15113862.104 -7894073.536 18970604.713 10 0 60246 61200.00000 0 -16387115.717 -9710712.761 16961287.925 10 0 60246 62100.00000 0 -17630311.903 -11214816.478 14622423.130 10 0 60246 63000.00000 0 -18782449.316 -12391489.521 11999368.216 10 0 60246 63900.00000 0 -19782791.287 -13238788.735 9143036.285 10 0 60246 64800.00000 0 -20573484.082 -13767554.006 6108909.738 10 0 60246 65700.00000 0 -21102075.566 -14000707.402 2955962.016 10 0 60246 66600.00000 0 -21323827.238 -13972050.270 -254491.988 10 0 60246 67500.00000 0 -21203721.035 -13724609.589 -3459994.074 10 0 60246 68400.00000 0 -20718074.877 -13308604.110 -6598165.443 10 0 60246 69300.00000 0 -19855697.450 -12779117.202 -9607929.164 10 0 60246 70200.00000 0 -18618532.210 -12193575.871 -12430707.594 10 0 60246 71100.00000 0 -17021762.316 -11609143.791 -15011570.411 10 0 60246 72000.00000 0 -15093371.188 -11080139.741 -17300309.988 10 0 60246 72900.00000 0 -12873176.516 -10655591.665 -19252422.563 10 0 60246 73800.00000 0 -10411377.850 -10377030.552 -20829975.730 10 0 60246 74700.00000 0 -7766678.427 -10276617.916 -22002345.322 10 0 60246 75600.00000 0 -5004059.692 -10375686.188 -22746807.605 10 0 60246 76500.00000 0 -2192301.324 -10683753.618 -23048975.743 10 0 60246 77400.00000 0 598649.945 -11198055.043 -22903072.649 10 0 60246 78300.00000 0 3300353.484 -11903607.938 -22312035.628 10 0 60246 79200.00000 0 5848479.188 -12773810.582 -21287451.435 10 0 60246 80100.00000 0 8185235.614 -13771546.782 -19849323.592 10 0 60246 81000.00000 0 10261521.872 -14850750.312 -18025676.978 10 0 60246 81900.00000 0 12038715.071 -15958363.033 -15852007.655 10 0 60246 82800.00000 0 13490020.327 -17036604.166 -13370588.890 10 0 60246 83700.00000 0 14601328.772 -18025455.168 -10629646.914 10 0 60246 84600.00000 0 15371549.487 -18865255.729 -7682422.487 10 0 60246 85500.00000 0 15812403.231 -19499301.683 -4586136.513 10 0 60247 0.00000 0 15947688.323 -19876335.582 -1400880.071 10 0 60247 900.00000 0 15812051.017 -19952825.364 1811551.320 10 0 60247 1800.00000 0 15449313.210 -19694934.819 4988852.316 10 0 60247 2700.00000 0 14910429.091 -19080103.615 8069413.762 10 0 60247 3600.00000 0 14251157.166 -18098169.747 10993512.678 10 0 60247 4500.00000 0 13529546.271 -16751987.231 13704464.950 10 0 60247 5400.00000 0 12803341.496 -15057512.585 16149718.525 10 0 60247 6300.00000 0 12127419.169 -13043355.793 18281866.355 10 0 60247 7200.00000 0 11551358.599 -10749813.650 20059560.025 10 0 60247 8100.00000 0 11117252.403 -8227424.718 21448306.980 10 0 60247 9000.00000 0 10857847.170 -5535104.865 22421136.519 10 0 60247 9900.00000 0 10795092.431 -2737939.604 22959122.136 10 0 60247 10800.00000 0 10939158.879 95276.480 23051750.438 10 0 60247 11700.00000 0 11287967.349 2894652.483 22697129.562 10 0 60247 12600.00000 0 11827248.855 5591859.000 21902032.864 10 0 60247 13500.00000 0 12531133.972 8122721.945 20681776.536 10 0 60247 14400.00000 0 13363247.762 10429645.665 19059932.744 10 0 60247 15300.00000 0 14278265.272 12463765.413 17067882.930 10 0 60247 16200.00000 0 15223863.234 14186740.160 14744218.837 10 0 60247 17100.00000 0 16142986.621 15572111.367 12134001.842 10 0 60247 18000.00000 0 16976335.168 16606171.128 9287894.078 10 0 60247 18900.00000 0 17664965.158 17288303.475 6261177.549 10 0 60247 19800.00000 0 18152896.477 17630784.674 3112679.930 10 0 60247 20700.00000 0 18389614.164 17658051.083 -96372.002 10 0 60247 21600.00000 0 18332357.785 17405465.780 -3303548.620 10 0 60247 22500.00000 0 17948100.616 16917636.534 -6446439.442 10 0 60247 23400.00000 0 17215133.583 16246356.850 -9463876.116 10 0 60247 24300.00000 0 16124185.649 15448258.039 -12297131.558 10 0 60247 25200.00000 0 14679031.981 14582272.532 -14891070.918 10 0 60247 26100.00000 0 12896563.110 13707016.740 -17195231.024 10 0 60247 27000.00000 0 10806311.197 12878204.969 -19164806.649 10 0 60247 27900.00000 0 8449452.582 12146204.420 -20761524.056 10 0 60247 28800.00000 0 5877327.959 11553834.995 -21954384.699 10 0 60247 29700.00000 0 3149541.765 11134506.941 -22720264.876 10 0 60247 30600.00000 0 331719.927 10910774.718 -23044360.116 10 0 60247 31500.00000 0 -2506980.687 10893367.706 -22920466.254 10 0 60247 32400.00000 0 -5296507.714 11080737.928 -22351092.420 10 0 60247 33300.00000 0 -7968584.370 11459143.144 -21347404.434 10 0 60247 34200.00000 0 -10459305.693 12003261.047 -19929000.272 10 0 60247 35100.00000 0 -12711552.800 12677307.981 -18123522.480 10 0 60247 36000.00000 0 -14677125.844 13436614.450 -15966115.366 10 0 60247 36900.00000 0 -16318508.070 14229590.562 -13498737.773 10 0 60247 37800.00000 0 -17610188.951 14999998.292 -10769344.850 10 0 60247 38700.00000 0 -18539492.745 15689434.553 -7830954.798 10 0 60247 39600.00000 0 -19106879.405 16239920.359 -4740618.696 10 0 60247 40500.00000 0 -19325706.881 16596486.855 -1558313.449 10 0 60247 41400.00000 0 -19221466.229 16709649.217 1654220.711 10 0 60247 42300.00000 0 -18830522.921 16537664.145 4834675.535 10 0 60247 43200.00000 0 -18198418.332 16048475.752 7921379.809 10 0 60247 44100.00000 0 -17377803.565 15221267.780 10854490.863 10 0 60247 45000.00000 0 -16426093.031 14047556.520 13577149.634 10 0 60247 45900.00000 0 -15402936.662 12531778.055 16036577.243 10 0 60247 46800.00000 0 -14367616.963 10691344.441 18185092.322 10 0 60247 47700.00000 0 -13376480.073 8556165.552 19981029.906 10 0 60247 48600.00000 0 -12480508.286 6167655.395 21389544.706 10 0 60247 49500.00000 0 -11723135.490 3577262.968 22383283.855 10 0 60247 50400.00000 0 -11138396.749 844587.344 22942916.540 10 0 60247 51300.00000 0 -10749489.311 -1964846.210 23057510.630 10 0 60247 52200.00000 0 -10567805.226 -4782058.299 22724749.094 10 0 60247 53100.00000 0 -10592476.264 -7537234.519 21950981.824 10 0 60247 54000.00000 0 -10810450.508 -10162384.236 20751111.368 10 0 60247 54900.00000 0 -11197097.965 -12593929.798 19148314.031 10 0 60247 55800.00000 0 -11717320.390 -14775119.420 17173600.836 10 0 60247 56700.00000 0 -12327119.400 -16658163.937 14865225.763 10 0 60247 57600.00000 0 -12975557.505 -18206008.752 12267951.716 10 0 60247 58500.00000 0 -13607029.870 -19393667.099 9432187.570 10 0 60247 59400.00000 0 -14163751.153 -20209058.846 6413012.361 10 0 60247 60300.00000 0 -14588352.225 -20653319.632 3269105.205 10 0 60247 61200.00000 0 -14826476.475 -20740567.318 61601.802 10 0 60247 62100.00000 0 -14829264.976 -20497135.709 -3147099.899 10 0 60247 63000.00000 0 -14555624.209 -19960308.097 -6294560.946 10 0 60247 63900.00000 0 -13974178.991 -19176604.577 -9319524.843 10 0 60247 64800.00000 0 -13064826.570 -18199696.113 -12163118.364 10 0 60247 65700.00000 0 -11819824.714 -17088034.274 -14770005.386 10 0 60247 66600.00000 0 -10244366.563 -15902297.666 -17089470.282 10 0 60247 67500.00000 0 -8356616.799 -14702763.727 -19076409.206 10 0 60247 68400.00000 0 -6187206.661 -13546717.489 -20692209.545 10 0 60247 69300.00000 0 -3778208.251 -12486007.107 -21905500.355 10 0 60247 70200.00000 0 -1181630.553 -11564849.314 -22692759.388 10 0 60247 71100.00000 0 1542500.386 -10817977.080 -23038765.368 10 0 60247 72000.00000 0 4328397.280 -10269206.955 -22936887.283 10 0 60247 72900.00000 0 7107009.737 -9930485.596 -22389205.782 10 0 60247 73800.00000 0 9808661.106 -9801454.622 -21406464.945 10 0 60247 74700.00000 0 12365714.763 -9869551.009 -20007855.974 10 0 60247 75600.00000 0 14715159.597 -10110637.682 -18220637.479 10 0 60247 76500.00000 0 16801007.970 -10490136.736 -16079600.058 10 0 60247 77400.00000 0 18576407.267 -10964616.617 -13626385.839 10 0 60247 78300.00000 0 20005378.273 -11483765.651 -10908676.293 10 0 60247 79200.00000 0 21064109.117 -11992668.155 -7979264.163 10 0 60247 80100.00000 0 21741752.134 -12434286.711 -4895027.563 10 0 60247 81000.00000 0 22040691.678 -12752045.632 -1715826.181 10 0 60247 81900.00000 0 21976273.047 -12892406.437 1496659.002 10 0 60247 82800.00000 0 21576005.082 -12807326.557 4680119.943 10 0 60247 83700.00000 0 20878270.961 -12456497.464 7772826.603 10 0 60247 84600.00000 0 19930602.117 -11809267.703 10714819.622 10 0 60247 85500.00000 0 18787588.303 -10846169.554 13449067.655 10 0 60248 0.00000 0 17508511.971 -9559984.775 15922567.081 10 0 60248 900.00000 0 16154805.526 -7956303.244 18087364.535 10 0 60248 1800.00000 0 14787439.650 -6053551.939 19901479.702 10 0 60248 2700.00000 0 13464349.492 -3882489.600 21329715.584 10 0 60248 3600.00000 0 12238007.662 -1485188.403 22344337.748 10 0 60248 4500.00000 0 11153244.478 1086457.067 22925611.266 10 0 60248 5400.00000 0 10245406.194 3772633.062 23062185.083 10 0 60248 6300.00000 0 9538927.897 6507844.729 22751316.451 10 0 60248 7200.00000 0 9046380.508 9223397.608 21998930.913 10 0 60248 8100.00000 0 8768031.711 11850020.994 20819516.194 10 0 60248 9000.00000 0 8691939.329 14320525.479 19235851.310 10 0 60248 9900.00000 0 8794573.483 16572385.136 17278575.217 10 0 60248 10800.00000 0 9041941.792 18550137.569 14985602.314 10 0 60248 11700.00000 0 9391170.627 20207502.182 12401395.070 10 0 60248 12600.00000 0 9792476.120 21509128.261 9576106.998 10 0 60248 13500.00000 0 10191441.861 22431899.677 6564611.942 10 0 60248 14400.00000 0 10531506.903 22965741.300 3425438.133 10 0 60248 15300.00000 0 10756558.406 23113892.989 219627.782 10 0 60248 16200.00000 0 10813518.357 22892639.500 -2990455.277 10 0 60248 17100.00000 0 10654813.803 22330507.672 -6142346.049 10 0 60248 18000.00000 0 10240624.617 21466964.936 -9174702.242 10 0 60248 18900.00000 0 9540812.251 20350674.454 -12028506.717 10 0 60248 19800.00000 0 8536446.347 19037381.119 -14648224.124 10 0 60248 20700.00000 0 7220863.274 17587518.327 -16982888.267 10 0 60248 21600.00000 0 5600210.611 16063637.189 -18987098.362 10 0 60248 22500.00000 0 3693453.492 14527767.216 -20621904.438 10 0 60248 23400.00000 0 1531841.629 13038820.096 -21855564.483 10 0 60248 24300.00000 0 -842141.377 11650146.039 -22664158.850 10 0 60248 25200.00000 0 -3376303.008 10407345.281 -23032050.386 10 0 60248 26100.00000 0 -6010677.772 9346426.251 -22952181.895 10 0 60248 27000.00000 0 -8679793.711 8492386.927 -22426205.872 10 0 60248 27900.00000 0 -11315175.375 7858277.834 -21464444.604 10 0 60248 28800.00000 0 -13847979.423 7444784.740 -20085682.041 10 0 60248 29700.00000 0 -16211653.620 7240347.166 -18316791.953 10 0 60248 30600.00000 0 -18344509.199 7221806.292 -16192209.939 10 0 60248 31500.00000 0 -20192100.160 7355553.678 -13753259.795 10 0 60248 32400.00000 0 -21709311.264 7599131.277 -11047347.441 10 0 60248 33300.00000 0 -22862068.621 7903214.294 -8127038.104 10 0 60248 34200.00000 0 -23628602.514 8213892.547 -5049034.750 10 0 60248 35100.00000 0 -24000210.780 8475153.490 -1873077.579 10 0 60248 36000.00000 0 -23981491.958 8631461.679 1339214.054 10 0 60248 36900.00000 0 -23590039.444 8630325.548 4525534.756 10 0 60248 37800.00000 0 -22855610.447 8424742.923 7624098.212 10 0 60248 38700.00000 0 -21818805.318 7975421.943 10574831.004 10 0 60248 39600.00000 0 -20529313.199 7252683.485 13320532.188 10 0 60248 40500.00000 0 -19043797.808 6237964.620 15807976.499 10 0 60248 41400.00000 0 -17423512.021 4924859.311 17988940.277 10 0 60248 42300.00000 0 -15731740.921 3319651.834 19821130.764 10 0 60248 43200.00000 0 -14031179.899 1441319.546 21269001.424 10 0 60248 44100.00000 0 -12381356.864 -678996.503 22304438.086 10 0 60248 45000.00000 0 -10836205.610 -2999032.493 22907303.143 10 0 60248 45900.00000 0 -9441890.984 -5466912.632 23065827.606 10 0 60248 46800.00000 0 -8234976.040 -8023068.711 22776843.553 10 0 60248 47700.00000 0 -7241007.178 -10602490.284 22045852.267 10 0 60248 48600.00000 0 -6473576.000 -13137213.546 20886926.296 10 0 60248 49500.00000 0 -5933896.874 -15558946.839 19322446.594 10 0 60248 50400.00000 0 -5610917.857 -17801724.631 17382678.889 10 0 60248 51300.00000 0 -5481960.331 -19804480.217 15105196.479 10 0 60248 52200.00000 0 -5513860.594 -21513430.308 12534159.552 10 0 60248 53100.00000 0 -5664565.452 -22884171.978 9719464.157 10 0 60248 54000.00000 0 -5885114.481 -23883404.031 6715776.628 10 0 60248 54900.00000 0 -6121925.088 -24490200.316 3581471.829 10 0 60248 55800.00000 0 -6319283.228 -24696781.016 377495.869 10 0 60248 56700.00000 0 -6421933.665 -24508749.069 -2833824.263 10 0 60248 57600.00000 0 -6377659.026 -23944781.436 -5990000.344 10 0 60248 58500.00000 0 -6139737.153 -23035788.089 -9029607.186 10 0 60248 59400.00000 0 -5669171.261 -21823574.267 -11893486.686 10 0 60248 60300.00000 0 -4936597.018 -20359062.721 -14525907.221 10 0 60248 61200.00000 0 -3923784.431 -18700151.377 -16875654.887 10 0 60248 62100.00000 0 -2624669.746 -16909297.257 -18897034.656 10 0 60248 63000.00000 0 -1045872.614 -15050928.937 -20550761.596 10 0 60248 63900.00000 0 793324.240 -13188796.837 -21804724.650 10 0 60248 64800.00000 0 2861532.860 -11383372.918 -22634608.326 10 0 60248 65700.00000 0 5116332.664 -9689408.840 -23024360.643 10 0 60248 66600.00000 0 7505813.430 -8153754.618 -22966498.760 10 0 60248 67500.00000 0 9970524.569 -6813528.420 -22462247.060 10 0 60248 68400.00000 0 12445749.723 -5694713.092 -21521505.626 10 0 60248 69300.00000 0 14864012.117 -4811236.847 -20162650.321 10 0 60248 70200.00000 0 17157706.669 -4164575.080 -18412168.854 10 0 60248 71100.00000 0 19261749.594 -3743888.337 -16304140.220 10 0 60248 72000.00000 0 21116135.576 -3526688.990 -13879567.897 10 0 60248 72900.00000 0 22668296.500 -3480007.030 -11185579.887 10 0 60248 73800.00000 0 23875164.044 -3562004.531 -8274511.183 10 0 60248 74700.00000 0 24704850.730 -3723969.601 -5202886.562 10 0 60248 75600.00000 0 25137880.041 -3912604.833 -2030323.448 10 0 60248 76500.00000 0 25167915.002 -4072512.989 1181623.840 10 0 60248 77400.00000 0 24801955.512 -4148774.516 4370656.011 10 0 60248 78300.00000 0 24059996.958 -4089507.733 7474933.814 10 0 60248 79200.00000 0 22974164.995 -3848303.407 10434272.915 10 0 60248 80100.00000 0 21587363.201 -3386430.777 13191305.617 10 0 60248 81000.00000 0 19951490.455 -2674721.793 15692587.302 10 0 60248 81900.00000 0 18125302.639 -1695053.796 17889626.576 10 0 60248 82800.00000 0 16172007.863 -441367.729 19739819.726 10 0 60248 83700.00000 0 14156695.232 1079821.750 21207271.996 10 0 60248 84600.00000 0 12143703.849 2849446.777 22263490.406 10 0 60248 85500.00000 0 10194041.094 4836437.939 22887935.187 10 0 60249 0.00000 0 8362957.129 6998785.459 23068419.543 10 0 60249 900.00000 0 6697774.957 9285068.611 22801350.111 10 0 60249 1800.00000 0 5236068.180 11636388.457 22091803.172 10 0 60249 2700.00000 0 4004258.553 13988629.009 20953434.999 10 0 60249 3600.00000 0 3016693.859 16274951.325 19408227.017 10 0 60249 4500.00000 0 2275243.298 18428419.006 17486069.948 10 0 60249 5400.00000 0 1769427.296 20384646.364 15224193.935 10 0 60249 6300.00000 0 1477076.129 22084359.248 12666454.631 10 0 60249 7200.00000 0 1365489.588 23475761.605 9862488.195 10 0 60249 8100.00000 0 1393048.667 24516608.518 6866750.897 10 0 60249 9000.00000 0 1511210.997 25175898.315 3737461.585 10 0 60249 9900.00000 0 1666805.215 25435112.041 535467.565 10 0 60249 10800.00000 0 1804526.487 25288947.504 -2676943.712 10 0 60249 11700.00000 0 1869526.550 24745516.352 -5837263.444 10 0 60249 12600.00000 0 1809987.380 23825995.436 -8883986.074 10 0 60249 13500.00000 0 1579568.103 22563746.857 -11757814.886 10 0 60249 14400.00000 0 1139620.116 21002943.799 -14402824.129 10 0 60249 15300.00000 0 461075.238 19196760.186 -16767554.098 10 0 60249 16200.00000 0 -474074.267 17205200.771 -18806017.197 10 0 60249 17100.00000 0 -1671767.489 15092663.274 -20478594.980 10 0 60249 18000.00000 0 -3125382.030 12925335.417 -21752808.559 10 0 60249 18900.00000 0 -4815778.088 10768536.291 -22603947.592 10 0 60249 19800.00000 0 -6711878.324 8684113.468 -23015545.999 10 0 60249 20700.00000 0 -8771759.663 6728004.580 -22979695.728 10 0 60249 21600.00000 0 -10944211.748 4948064.693 -22497193.134 10 0 60249 22500.00000 0 -13170697.186 3382249.320 -21577515.782 10 0 60249 23400.00000 0 -15387631.976 2057227.751 -20238630.716 10 0 60249 24300.00000 0 -17528891.184 987483.084 -18506638.424 10 0 60249 25200.00000 0 -19528435.627 174934.855 -16415259.753 10 0 60249 26100.00000 0 -21322950.241 -390901.754 -14005175.999 10 0 60249 27000.00000 0 -22854384.412 -732228.640 -11323235.140 10 0 60249 27900.00000 0 -24072288.647 -881780.025 -8421539.655 10 0 60249 28800.00000 0 -24935850.393 -881191.540 -5356433.743 10 0 60249 29700.00000 0 -25415544.467 -778993.135 -2187409.594 10 0 60249 30600.00000 0 -25494329.599 -628311.410 1024046.034 10 0 60249 31500.00000 0 -25168341.540 -484379.063 4215642.519 10 0 60249 32400.00000 0 -24447054.275 -401957.069 7325490.296 10 0 60249 33300.00000 0 -23352902.966 -432778.748 10293296.763 10 0 60249 34200.00000 0 -21920384.727 -623123.801 13061530.122 10 0 60249 35100.00000 0 -20194674.977 -1011624.786 15576528.983 10 0 60249 36000.00000 0 -18229817.102 -1627398.735 17789536.665 10 0 60249 36900.00000 0 -16086560.769 -2488582.903 19657640.709 10 0 60249 37800.00000 0 -13829938.588 -3601336.778 21144600.038 10 0 60249 38700.00000 0 -11526681.424 -4959353.136 22221544.375 10 0 60249 39600.00000 0 -9242579.214 -6543899.706 22867532.879 10 0 60249 40500.00000 0 -7039896.218 -8324391.165 23069961.561 10 0 60249 41400.00000 0 -4974947.297 -10259469.136 22824811.734 10 0 60249 42300.00000 0 -3095935.218 -12298546.821 22136734.497 10 0 60249 43200.00000 0 -1441138.180 -14383755.536 21018969.199 10 0 60249 44100.00000 0 -37522.436 -16452213.562 19493096.717 10 0 60249 45000.00000 0 1100162.665 -18438523.975 17588631.404 10 0 60249 45900.00000 0 1969769.763 -20277398.201 15342458.582 10 0 60249 46800.00000 0 2581602.911 -21906296.314 12798127.420 10 0 60249 47700.00000 0 2957737.888 -23267973.795 10005011.992 10 0 60249 48600.00000 0 3130842.263 -24312827.874 7017356.124 10 0 60249 49500.00000 0 3142545.268 -25000944.508 3893220.118 10 0 60249 50400.00000 0 3041426.825 -25303759.224 693349.858 10 0 60249 51300.00000 0 2880711.380 -25205261.075 -2520009.432 10 0 60249 52200.00000 0 2715765.096 -24702688.122 -5684331.081 10 0 60249 53100.00000 0 2601503.476 -23806684.366 -8738031.887 10 0 60249 54000.00000 0 2589820.500 -22540910.862 -11621679.231 10 0 60249 54900.00000 0 2727149.516 -20941127.061 -14279155.889 10 0 60249 55800.00000 0 3052260.495 -19053780.904 -16658758.905 10 0 60249 56700.00000 0 3594388.105 -16934167.070 -18714210.480 10 0 60249 57600.00000 0 4371770.846 -14644230.955 -20405560.745 10 0 60249 58500.00000 0 5390663.856 -12250110.840 -21699964.735 10 0 60249 59400.00000 0 6644867.757 -9819521.436 -22572318.582 10 0 60249 60300.00000 0 8115793.973 -7419088.349 -23005742.982 10 0 60249 61200.00000 0 9773064.194 -5111744.707 -22991905.087 10 0 60249 62100.00000 0 11575619.155 -2954298.186 -22531173.188 10 0 60249 63000.00000 0 13473290.518 -995269.104 -21632601.878 10 0 60249 63900.00000 0 15408770.214 726911.333 -20313748.547 10 0 60249 64800.00000 0 17319895.043 2185268.917 -18600325.267 10 0 60249 65700.00000 0 19142151.176 3365165.065 -16525693.201 10 0 60249 66600.00000 0 20811294.013 4264651.279 -14130209.584 10 0 60249 67500.00000 0 22265974.089 4894286.587 -11460440.152 10 0 60249 68400.00000 0 23450259.454 5276427.473 -8568252.329 10 0 60249 69300.00000 0 24315949.267 5444021.899 -5509806.915 10 0 60249 70200.00000 0 24824582.084 5438959.672 -2344467.825 10 0 60249 71100.00000 0 24949055.082 5310049.909 866348.913 10 0 60249 72000.00000 0 24674786.724 5110711.850 4060364.543 10 0 60249 72900.00000 0 24000374.438 4896477.134 7175642.310 10 0 60249 73800.00000 0 22937719.988 4722409.390 10151784.297 10 0 60249 74700.00000 0 21511617.382 4640550.290 12931097.323 10 0 60249 75600.00000 0 19758820.501 4697499.910 15459705.658 10 0 60249 76500.00000 0 17726629.155 4932233.516 17688589.459 10 0 60249 77400.00000 0 15471052.200 5374246.835 19574529.324 10 0 60249 78300.00000 0 13054623.660 6042108.152 21080939.335 10 0 60249 79200.00000 0 10543962.019 6942478.588 22178573.055 10 0 60249 80100.00000 0 8007173.304 8069642.421 22846089.347 10 0 60249 81000.00000 0 5511204.914 9405568.226 23070467.430 10 0 60249 81900.00000 0 3119259.065 10920499.583 22847263.304 10 0 60249 82800.00000 0 888372.357 12574052.155 22180702.385 10 0 60249 83700.00000 0 -1132738.885 14316772.856 21083606.177 10 0 60249 84600.00000 0 -2905478.698 16092097.543 19577153.649 10 0 60249 85500.00000 0 -4402742.613 17838626.746 17690481.026 99